[[{"header":{"parameterUnit":"m.s-1","parameterCategory":2,"la1":30.2991,"la2":30.254,"lo1":-89.0895,"lo2":-89.0444,"dy":0.0017,"dx":0.0017,"nx":28,"ny":28,"refTime":"2024-12-08T03:00:00:Z","depth":"0","parameterNumber":2,"parameterNumberName":"U-component_of_CURRENTS"},"data":[0,0,0,0,0,0,0,0,0,0,0,0,0,0,0,0,0,0,0,0,0,0,0,0,0,0,0,0,0,0,0,0,0,0,0,0,0,0,0,0,0,0,0,0,0,0,0,0,0,0,0,0,0,0,0,0,0,0,0.1465,0.1465,0,0.1461,0.1461,0.1461,0.1457,0.1457,0.1457,0.1457,0.1437,0.1437,0.1436,0,0,0,0,0,0,0,0,0,0,0,0,0,0.1477,0.1477,0.1465,0.1465,0.1465,0.1461,0.1461,0.1461,0.1457,0.1457,0.1457,0.1457,0.1438,0.1437,0.1436,0,0,0,0,0,0,0,0,0,0,0,0,0,0.1472,0.1477,0.1465,0.1463,0.1463,0.1461,0.1461,0.1461,0.1457,0.1457,0.1457,0.1457,0.1438,0.1437,0.1436,0.1431,0,0,0.1434,0.1433,0,0,0,0,0,0,0,0,0.1472,0.1471,0.1463,0.1463,0.1463,0.146,0.1458,0.145,0.1457,0.1458,0.1457,0.1457,0.1444,0.1443,0.1441,0.143,0.1429,0.1434,0.1433,0.1433,0.1433,0,0,0,0,0,0,0,0.1472,0.1471,0.1462,0.1463,0.1463,0.1465,0.1464,0.1457,0.145,0.1458,0.1458,0.1459,0.1444,0.1442,0.144,0.1429,0.1434,0.1433,0.1433,0.1432,0.1434,0.1435,0,0,0,0,0,0,0.1474,0.1471,0.1462,0.1462,0.1468,0.1465,0.1464,0.146,0.145,0.1449,0.1459,0.1459,0.1443,0.1441,0.144,0.145,0.1433,0.1432,0.1432,0.1434,0.1434,0.1435,0,0,0,0,0,0,0.1474,0.1473,0.1463,0.1468,0.1467,0.1465,0.1461,0.146,0.1459,0.1451,0.145,0.1459,0.1443,0.1441,0.1439,0.1449,0.1432,0.1431,0.1433,0.1434,0.1435,0.146,0,0,0,0,0,0,0.1474,0.1473,0.1471,0.1468,0.1467,0.1464,0.1461,0.146,0.146,0.146,0.1451,0.1449,0.1443,0.144,0.1438,0.1447,0.143,0.1432,0.1433,0.1434,0.1458,0.1461,0.1464,0,0,0,0,0,0.1475,0.1469,0.147,0.1469,0.1463,0.1464,0.1463,0.1462,0.146,0.1461,0.1458,0.1449,0.1445,0.144,0.1437,0.1446,0.1432,0.1433,0.1434,0.1457,0.1461,0.1464,0,0,0,0,0,0,0.1467,0.1468,0.1469,0.1462,0.1466,0.1464,0.1462,0.1463,0.1461,0.146,0.1452,0.145,0.1454,0.1446,0.1441,0.1451,0.1439,0.1439,0.1457,0.146,0.1463,0.1468,0.143,0,0,0,0,0,0.1467,0.1464,0.1467,0.1461,0.1463,0.1464,0.1464,0.1465,0.1463,0.1462,0.1457,0.1454,0.1457,0.1455,0.1453,0.1454,0.1465,0.146,0.1463,0.1465,0.1468,0.1489,0.1494,0.1439,0.1439,0.1439,0,0,0.146,0.1462,0.1459,0.146,0.1461,0.1468,0.1463,0.1464,0.1472,0.146,0.1464,0.1462,0.146,0.1466,0.1467,0.146,0.1491,0.1467,0.1469,0.147,0.1491,0.1496,0.1501,0.144,0.144,0.1439,0,0,0.1452,0.145,0.145,0.1457,0.1463,0.1467,0.1469,0.1471,0.1474,0.1479,0.1477,0.1481,0.1478,0.1482,0.1484,0.15,0.1506,0.15,0.1516,0.1537,0.1542,0.1546,0.1587,0.1595,0.15,0.15,0.15,0,0.1447,0.1447,0.145,0.1458,0.1464,0.1469,0.1475,0.1482,0.1484,0.1488,0.1483,0.1493,0.1488,0.1504,0.1512,0.1507,0.1527,0.1503,0.1541,0.1545,0.1549,0.159,0.1598,0.1502,0.1502,0.1502,0.1501,0,0.1445,0.1448,0.1449,0.1463,0.1471,0.1474,0.1489,0.1497,0.1502,0.1507,0.1521,0.1519,0.1525,0.1527,0.1524,0.1551,0.1561,0.1544,0.1533,0.1556,0.1598,0.1606,0.1504,0.1503,0.1503,0.1503,0,0,0.1422,0.1443,0.1443,0.1453,0.1474,0.1478,0.1499,0.1516,0.1531,0.1535,0.1555,0.156,0.1559,0.1561,0.156,0.1577,0.1627,0.1574,0.1575,0.1617,0.1695,0.1698,0.1707,0.1617,0.1619,0.1619,0.172,0,0.142,0.1434,0.1446,0.1462,0.1471,0.149,0.1508,0.1527,0.1544,0.1565,0.1572,0.1589,0.1573,0.1582,0.1595,0.162,0.1647,0.1603,0.1664,0.1667,0.1667,0.1715,0.1626,0.1707,0.1728,0.1729,0.173,0,0.1414,0.1426,0.144,0.1465,0.147,0.1482,0.1515,0.1534,0.157,0.1584,0.1604,0.1615,0.1646,0.1626,0.1682,0.1657,0.1679,0.1697,0.17,0.1698,0.1684,0.1683,0.1721,0.1645,0.1743,0.1742,0.1741,0,0.1398,0.142,0.143,0.1439,0.147,0.1481,0.1499,0.1535,0.1558,0.1603,0.1631,0.1657,0.1689,0.171,0.1752,0.172,0.1824,0.1781,0.1809,0.181,0.1743,0.1736,0.1712,0.1824,0.1823,0.1823,0.1823,0,0.1391,0.1397,0.1422,0.1428,0.1443,0.147,0.1495,0.1521,0.1566,0.1596,0.1637,0.1677,0.1712,0.1772,0.1784,0.1841,0.1854,0.183,0.1838,0.1752,0.1745,0.1681,0.1648,0.1827,0.1826,0.1825,0.1825,0,0.1371,0.1387,0.1398,0.1426,0.1435,0.1445,0.1489,0.1508,0.1562,0.161,0.163,0.1713,0.1798,0.185,0.1913,0.1898,0.1879,0.1956,0.1868,0.1863,0.178,0.1752,0.1713,0.1659,0.1985,0.1986,0.1987,0,0.1362,0.1367,0.139,0.1393,0.1404,0.1427,0.1442,0.1495,0.1519,0.1627,0.1646,0.1764,0.182,0.1942,0.1956,0.2005,0.1932,0.1949,0.1856,0.1782,0.1757,0.1682,0.1633,0.1788,0.1787,0.1786,0.1785,0,0.1347,0.1352,0.136,0.1366,0.1376,0.1394,0.1421,0.1442,0.1509,0.1561,0.1639,0.1701,0.1833,0.1855,0.1948,0.1953,0.1828,0.1931,0.1863,0.1616,0.1524,0.1472,0.1736,0.1777,0.1778,0.1779,0.1779,0.1779,0.133,0.1329,0.1334,0.1336,0.1343,0.1348,0.1343,0.138,0.1418,0.1475,0.158,0.1647,0.1732,0.184,0.185,0.1792,0.1784,0.1706,0.169,0.1631,0.1532,0.1799,0.1838,0.1839,0.184,0.184,0.1841,0,0.1308,0.1308,0.1305,0.1297,0.128,0.1303,0.1314,0.1299,0.1311,0.1398,0.1457,0.1543,0.157,0.163,0.1616,0.1546,0.1455,0.1496,0.1342,0.1313,0.1556,0.1498,0.1453,0.1453,0.1453,0.1453,0.1454,0.1454,0.1297,0.1283,0.1279,0.1238,0.1227,0.1185,0.1177,0.1167,0.1199,0.124,0.1287,0.1366,0.1447,0.1438,0.1367,0.1332,0.1207,0.1156,0.116,0.1295,0.1312,0.1327,0.1264,0.117,0.117,0.0836,0.0833,0.0831]},{"header":{"parameterUnit":"m.s-1","parameterCategory":2,"la1":30.2991,"la2":30.254,"lo1":-89.0895,"lo2":-89.0444,"dy":0.0017,"dx":0.0017,"nx":28,"ny":28,"refTime":"2024-12-08T03:00:00:Z","depth":"0","parameterNumber":3,"parameterNumberName":"V-component_of_CURRENTS"},"data":[0,0,0,0,0,0,0,0,0,0,0,0,0,0,0,0,0,0,0,0,0,0,0,0,0,0,0,0,0,0,0,0,0,0,0,0,0,0,0,0,0,0,0,0,0,0,0,0,0,0,0,0,0,0,0,0,0,0,0.0043,0.0043,0,0.0024,0.0024,0.0023,-0.0003,-0.0003,-0.0003,-0.0004,-0.0027,-0.0027,-0.0027,0,0,0,0,0,0,0,0,0,0,0,0,0,0.0031,0.0032,0.0043,0.0043,0.0043,0.0024,0.0024,0.0023,-0.0003,-0.0003,-0.0003,-0.0004,-0.0026,-0.0027,-0.0027,0,0,0,0,0,0,0,0,0,0,0,0,0,0.0026,0.0032,0.0043,0.0028,0.0027,0.0024,0.0024,0.0023,-0.0003,-0.0003,-0.0004,-0.0004,-0.0026,-0.0027,-0.0027,-0.002,0,0,-0.0029,-0.0029,0,0,0,0,0,0,0,0,0.0026,0.0026,0.0031,0.0029,0.0028,0.0013,0.0011,0.0009,-0.0002,0.0008,-0.0004,-0.0004,-0.0012,-0.0014,-0.0018,-0.0021,-0.0022,-0.0029,-0.0029,-0.0029,-0.0029,0,0,0,0,0,0,0,0.0027,0.0027,0.0034,0.0031,0.0029,0.0014,0.0013,0.001,-0.0,0.0007,0.0005,0.0005,-0.0014,-0.0017,-0.0019,-0.0022,-0.0029,-0.0029,-0.0029,-0.0029,-0.0043,-0.0043,0,0,0,0,0,0,0.0033,0.0027,0.0035,0.0034,0.0027,0.0015,0.0013,0.0018,-0.0,-0.0003,0.0005,0.0004,-0.0016,-0.0018,-0.002,-0.0026,-0.0029,-0.0029,-0.003,-0.0043,-0.0043,-0.0044,0,0,0,0,0,0,0.0033,0.0034,0.0036,0.0031,0.003,0.0016,0.0021,0.0018,0.0014,-0.0001,-0.0004,0.0004,-0.0017,-0.0019,-0.0022,-0.0027,-0.003,-0.003,-0.0043,-0.0043,-0.0043,-0.003,0,0,0,0,0,0,0.0033,0.0034,0.004,0.0031,0.003,0.0041,0.0021,0.0018,0.0015,0.0012,-0.0003,-0.0005,-0.0017,-0.0021,-0.0022,-0.0027,-0.003,-0.0043,-0.0043,-0.0043,-0.0031,-0.003,-0.0029,0,0,0,0,0,0.0033,0.0048,0.004,0.0041,0.0039,0.0042,0.004,0.0027,0.0015,0.002,0.0005,-0.0005,-0.0024,-0.0021,-0.0023,-0.0028,-0.0043,-0.0043,-0.0043,-0.0031,-0.003,-0.0029,0,0,0,0,0,0,0.0054,0.0047,0.0038,0.0053,0.0048,0.0038,0.0042,0.0031,0.0022,0.0018,-0.0,-0.0003,-0.001,-0.0018,-0.0015,-0.0034,-0.0037,-0.0038,-0.0027,-0.0027,-0.0026,-0.0026,-0.0031,0,0,0,0,0,0.006,0.0064,0.0057,0.0069,0.0067,0.0053,0.0052,0.0044,0.0035,0.003,0.0019,0.0004,-0.0012,-0.0018,-0.0027,-0.0031,-0.0032,-0.0038,-0.0037,-0.0036,-0.0038,-0.0042,-0.0042,-0.0044,-0.0044,-0.0044,0,0,0.0071,0.0068,0.007,0.0072,0.0066,0.0067,0.0051,0.0054,0.0049,0.003,0.0024,0.001,-0.0011,-0.0021,-0.0025,-0.0028,-0.0035,-0.0037,-0.0036,-0.0038,-0.0042,-0.0042,-0.0042,-0.0045,-0.0044,-0.0044,0,0,0.0094,0.0093,0.0101,0.0098,0.0093,0.0083,0.0085,0.0076,0.0066,0.0062,0.0038,0.0024,0.0011,-0.0012,-0.0025,-0.0025,-0.0029,-0.0029,-0.0029,-0.0033,-0.0032,-0.0032,-0.0024,-0.0023,-0.0032,-0.0032,-0.0032,0,0.0108,0.0114,0.0105,0.0111,0.0106,0.0091,0.0094,0.0085,0.0076,0.0066,0.0063,0.0031,0.0013,-0.0012,-0.0021,-0.0024,-0.0021,-0.0029,-0.0031,-0.0031,-0.0031,-0.0023,-0.0022,-0.0031,-0.0031,-0.0031,-0.0031,0,0.0132,0.0134,0.0141,0.0135,0.0132,0.0136,0.0119,0.0115,0.01,0.0087,0.007,0.0047,0.0027,0.0013,-0.0008,-0.0024,-0.002,-0.0027,-0.0031,-0.003,-0.0021,-0.0021,-0.003,-0.003,-0.0031,-0.0031,0,0,0.017,0.0158,0.016,0.0152,0.0142,0.0142,0.0133,0.0118,0.0116,0.0099,0.0097,0.0051,0.0041,0.0024,-0.0001,-0.0015,-0.0018,-0.0024,-0.0025,-0.0013,-0.0014,0.003,0.0035,-0.0023,-0.0023,-0.0023,-0.0004,0,0.0189,0.0194,0.0183,0.0184,0.0181,0.016,0.0156,0.0141,0.0128,0.0129,0.0094,0.009,0.0044,0.0043,0.0016,-0.0001,-0.0017,-0.0021,-0.0021,-0.002,0.0022,0.0037,0.0046,0.0067,-0.0004,-0.0004,-0.0004,0,0.0213,0.021,0.0211,0.0195,0.0194,0.0194,0.0179,0.0176,0.0164,0.016,0.0141,0.0127,0.0099,0.0073,0.003,0.0032,0.0003,-0.0014,-0.0014,0.0023,0.0025,0.0052,0.0071,-0.0011,-0.0003,-0.0003,-0.0003,0,0.0232,0.0228,0.0225,0.0221,0.0207,0.0202,0.0197,0.0185,0.0198,0.019,0.0219,0.0167,0.0188,0.0123,0.0088,0.0057,0.0066,0.0022,0.0032,0.0036,0.0041,0.0045,-0.0017,-0.0011,-0.0011,-0.0011,-0.0011,0,0.0251,0.025,0.0235,0.0234,0.024,0.0223,0.024,0.0228,0.0247,0.0298,0.0244,0.0298,0.0204,0.0202,0.0122,0.0104,0.0094,0.004,0.0044,0.0048,0.0052,-0.0021,-0.0069,-0.0011,-0.0011,-0.0011,-0.0011,0,0.0271,0.026,0.026,0.0248,0.0249,0.0256,0.0283,0.0307,0.0318,0.0392,0.0404,0.0413,0.0422,0.0336,0.0274,0.019,0.0105,0.013,0.0151,0.0157,0.0066,0.0019,-0.0012,-0.0047,0.0123,0.0124,0.0125,0,0.0282,0.0282,0.0278,0.0293,0.029,0.0306,0.0332,0.034,0.039,0.0486,0.0543,0.0577,0.0635,0.056,0.0416,0.0299,0.0196,0.0218,0.0146,0.0073,0.0023,-0.0011,-0.0043,0.0157,0.0158,0.0159,0.016,0,0.0308,0.0305,0.0309,0.0337,0.0362,0.0396,0.0441,0.0501,0.0557,0.0645,0.0787,0.0845,0.079,0.07,0.0535,0.0434,0.0168,0.0236,0.0144,0.0037,0.0011,-0.0023,0.0139,0.0169,0.0168,0.0168,0.0167,0.0167,0.034,0.0351,0.0366,0.0398,0.0429,0.0506,0.0575,0.0654,0.0778,0.0939,0.0975,0.1077,0.0901,0.069,0.0556,0.0278,0.026,0.0163,0.0112,0.0084,0.0049,0.0248,0.0295,0.0295,0.0295,0.0295,0.0294,0,0.0399,0.0413,0.0435,0.0488,0.0548,0.0551,0.0668,0.0762,0.0947,0.1057,0.1188,0.1146,0.0948,0.069,0.0327,0.0157,0.0067,0.0062,-0.0021,-0.005,0.0111,0.011,0.014,0.014,0.014,0.014,0.014,0.014,0.0439,0.0478,0.0485,0.0596,0.0642,0.0755,0.0843,0.0973,0.1067,0.122,0.1258,0.1276,0.1055,0.047,0.0078,-0.0007,-0.0151,-0.0141,-0.0215,-0.0149,-0.0145,-0.0141,-0.0156,-0.0182,-0.0182,-0.0367,-0.0369,-0.037]}],[{"header":{"parameterUnit":"m.s-1","parameterCategory":2,"la1":30.2991,"la2":30.254,"lo1":-89.0895,"lo2":-89.0444,"dy":0.0017,"dx":0.0017,"nx":28,"ny":28,"refTime":"2024-12-08T03:00:00:Z","depth":"2","parameterNumber":2,"parameterNumberName":"U-component_of_CURRENTS"},"data":[0,0,0,0,0,0,0,0,0,0,0,0,0,0,0,0,0,0,0,0,0,0,0,0,0,0,0,0,0,0,0,0,0,0,0,0,0,0,0,0,0,0,0,0,0,0,0,0,0,0,0,0,0,0,0,0,0,0,0.1455,0.1455,0,0.1483,0.1483,0.1483,0.1489,0.1489,0.1489,0.1489,0.1491,0.1491,0.1492,0,0,0,0,0,0,0,0,0,0,0,0,0,0.1469,0.1468,0.1455,0.1455,0.1455,0.1482,0.1483,0.1483,0.149,0.1489,0.1489,0.1489,0.1491,0.1491,0.1492,0,0,0,0,0,0,0,0,0,0,0,0,0,0.1477,0.1468,0.1455,0.1461,0.1462,0.1482,0.1483,0.1483,0.149,0.1489,0.1489,0.1489,0.1491,0.1491,0.1492,0.1502,0,0,0.1493,0.1493,0,0,0,0,0,0,0,0,0.1476,0.1476,0.146,0.1461,0.1462,0.1482,0.1489,0.1488,0.149,0.148,0.1489,0.1488,0.1485,0.1486,0.1493,0.1502,0.1502,0.1493,0.1493,0.1493,0.1493,0,0,0,0,0,0,0,0.1475,0.1475,0.1466,0.146,0.1461,0.1484,0.1484,0.1489,0.1484,0.1481,0.1481,0.1483,0.1486,0.1493,0.1493,0.1502,0.1493,0.1493,0.1494,0.1494,0.1561,0.1562,0,0,0,0,0,0,0.1468,0.1474,0.1465,0.1467,0.1468,0.1484,0.1484,0.1476,0.1485,0.1486,0.1484,0.1484,0.1492,0.1493,0.1493,0.1528,0.1493,0.1494,0.1494,0.1559,0.1561,0.1563,0,0,0,0,0,0,0.1468,0.1466,0.1464,0.1472,0.1473,0.1483,0.1475,0.1477,0.1482,0.1487,0.1488,0.1486,0.1492,0.1493,0.15,0.1527,0.1494,0.1494,0.1558,0.156,0.1562,0.1582,0,0,0,0,0,0,0.1468,0.1466,0.1462,0.1471,0.1472,0.1466,0.1475,0.1478,0.1484,0.1484,0.149,0.149,0.1492,0.15,0.1501,0.1527,0.1495,0.1556,0.1559,0.1561,0.1579,0.1584,0.1589,0,0,0,0,0,0.1468,0.1462,0.1461,0.146,0.1464,0.1466,0.1468,0.1476,0.1484,0.1481,0.1494,0.1489,0.152,0.1501,0.1502,0.1528,0.1554,0.1558,0.1561,0.1577,0.1583,0.1589,0,0,0,0,0,0,0.1456,0.1463,0.1461,0.1454,0.1454,0.1466,0.1473,0.1476,0.1485,0.1493,0.1496,0.1497,0.152,0.1521,0.15,0.156,0.1542,0.1546,0.1554,0.156,0.1565,0.1556,0.1495,0,0,0,0,0,0.1453,0.1454,0.1456,0.1448,0.1454,0.1464,0.1469,0.1472,0.1482,0.1486,0.1498,0.1518,0.1537,0.1542,0.1559,0.1578,0.1585,0.1603,0.1608,0.1612,0.1609,0.1629,0.1634,0.1574,0.1574,0.1574,0,0,0.1447,0.1449,0.145,0.1447,0.1457,0.1478,0.1466,0.1474,0.1499,0.1485,0.1527,0.1531,0.1546,0.1576,0.1588,0.1578,0.1639,0.1616,0.1619,0.1614,0.1633,0.1638,0.1643,0.1577,0.1576,0.1576,0,0,0.1444,0.1439,0.1447,0.1456,0.1467,0.1481,0.1482,0.15,0.1513,0.1541,0.155,0.156,0.1595,0.1607,0.1619,0.1658,0.1664,0.1677,0.1692,0.1712,0.1716,0.172,0.1758,0.1765,0.1679,0.1679,0.1679,0,0.1436,0.1449,0.1447,0.1464,0.1483,0.1487,0.151,0.1529,0.1548,0.1555,0.1559,0.1606,0.1613,0.1643,0.1662,0.1668,0.1686,0.1664,0.1716,0.172,0.1723,0.1761,0.1768,0.168,0.168,0.168,0.168,0,0.1448,0.1466,0.1474,0.1506,0.1519,0.1538,0.1565,0.158,0.1602,0.1614,0.1642,0.1653,0.167,0.1688,0.1687,0.1723,0.1732,0.1717,0.1694,0.173,0.1768,0.1776,0.1682,0.1682,0.1681,0.1681,0,0,0.1417,0.1474,0.1478,0.1501,0.1548,0.1553,0.1601,0.1628,0.1645,0.1671,0.1696,0.1726,0.1712,0.1725,0.1726,0.1746,0.1794,0.1745,0.1745,0.1771,0.1857,0.1806,0.1809,0.1787,0.1788,0.1789,0.1881,0,0.1432,0.148,0.1505,0.1553,0.1587,0.1608,0.1643,0.1663,0.169,0.1714,0.1722,0.1749,0.1736,0.1743,0.1758,0.1785,0.1811,0.1771,0.1828,0.183,0.1769,0.1814,0.1628,0.1688,0.1888,0.1889,0.189,0,0.144,0.1478,0.1532,0.1581,0.1593,0.1615,0.1656,0.1687,0.1718,0.1735,0.1751,0.1763,0.1796,0.178,0.1836,0.1813,0.1836,0.1856,0.186,0.1804,0.1791,0.1682,0.1694,0.1902,0.1901,0.19,0.19,0,0.1428,0.149,0.1535,0.1557,0.1616,0.1624,0.1647,0.1681,0.1705,0.1746,0.1771,0.1797,0.1829,0.1852,0.1898,0.187,0.197,0.1933,0.1913,0.1911,0.1757,0.1739,0.1973,0.1973,0.1972,0.1972,0.1972,0,0.1434,0.1467,0.1525,0.1548,0.1575,0.1611,0.1634,0.1657,0.17,0.1732,0.1771,0.1813,0.1849,0.1909,0.1925,0.1954,0.1994,0.1924,0.1927,0.1763,0.1745,0.1925,0.1918,0.1976,0.1975,0.1974,0.1974,0,0.1415,0.1458,0.1505,0.1562,0.1571,0.1583,0.1621,0.1635,0.1688,0.1739,0.1758,0.1842,0.1915,0.1963,0.2027,0.1994,0.2025,0.2027,0.1844,0.1822,0.1944,0.1937,0.1991,0.199,0.1989,0.1988,0.1987,0,0.1424,0.1452,0.1505,0.151,0.153,0.1554,0.1565,0.1617,0.1641,0.1757,0.1778,0.1881,0.1925,0.201,0.1977,0.1993,0.2053,0.1835,0.1725,0.1946,0.1945,0.194,0.1935,0.1549,0.1545,0.1541,0.1539,0,0.1442,0.1451,0.1472,0.1491,0.1496,0.1517,0.154,0.1562,0.1636,0.169,0.1779,0.1831,0.1893,0.1814,0.1833,0.1814,0.1805,0.1763,0.205,0.1566,0.1534,0.1531,0.154,0.1508,0.1511,0.1513,0.1515,0.1516,0.1439,0.1446,0.1459,0.1462,0.1467,0.1473,0.1479,0.1513,0.1556,0.1597,0.168,0.1675,0.1678,0.1586,0.156,0.1531,0.1643,0.1548,0.1556,0.1569,0.1494,0.1461,0.1409,0.1411,0.1414,0.1415,0.1417,0,0.1434,0.143,0.1434,0.1427,0.1414,0.1431,0.1456,0.1452,0.1482,0.1473,0.1491,0.132,0.1261,0.1299,0.1186,0.1178,0.1147,0.1145,0.108,0.1111,0.1139,0.104,0.0836,0.0834,0.0833,0.0831,0,0,0.1421,0.1416,0.1413,0.1378,0.137,0.1355,0.1363,0.1355,0.1336,0.1239,0.1162,0.1167,0.1225,0.0995,0.0971,0.0893,0.0997,0.0855,0.1317,0.1271,0.1297,0.1363,0.1245,0,0,0,0,0]},{"header":{"parameterUnit":"m.s-1","parameterCategory":2,"la1":30.2991,"la2":30.254,"lo1":-89.0895,"lo2":-89.0444,"dy":0.0017,"dx":0.0017,"nx":28,"ny":28,"refTime":"2024-12-08T03:00:00:Z","depth":"2","parameterNumber":3,"parameterNumberName":"V-component_of_CURRENTS"},"data":[0,0,0,0,0,0,0,0,0,0,0,0,0,0,0,0,0,0,0,0,0,0,0,0,0,0,0,0,0,0,0,0,0,0,0,0,0,0,0,0,0,0,0,0,0,0,0,0,0,0,0,0,0,0,0,0,0,0,-0.0089,-0.009,0,-0.0112,-0.0113,-0.0113,-0.0124,-0.0124,-0.0124,-0.0124,-0.0147,-0.0148,-0.0149,0,0,0,0,0,0,0,0,0,0,0,0,0,-0.0085,-0.0085,-0.0089,-0.009,-0.009,-0.0112,-0.0113,-0.0113,-0.0124,-0.0124,-0.0124,-0.0124,-0.0147,-0.0148,-0.0149,0,0,0,0,0,0,0,0,0,0,0,0,0,-0.0096,-0.0085,-0.0089,-0.0097,-0.0098,-0.0112,-0.0113,-0.0113,-0.0124,-0.0124,-0.0124,-0.0124,-0.0147,-0.0148,-0.0149,-0.0159,0,0,-0.0152,-0.0153,0,0,0,0,0,0,0,0,-0.0096,-0.0097,-0.0096,-0.0096,-0.0097,-0.0114,-0.0119,-0.0128,-0.0125,-0.0116,-0.0124,-0.0124,-0.0135,-0.0137,-0.0144,-0.0161,-0.0162,-0.0152,-0.0153,-0.0153,-0.0154,0,0,0,0,0,0,0,-0.0095,-0.0096,-0.01,-0.0096,-0.0097,-0.0109,-0.011,-0.0121,-0.0128,-0.0117,-0.0117,-0.0117,-0.0136,-0.0143,-0.0145,-0.0162,-0.0152,-0.0153,-0.0154,-0.0154,-0.0202,-0.0202,0,0,0,0,0,0,-0.0088,-0.0095,-0.0099,-0.01,-0.0094,-0.0109,-0.0111,-0.011,-0.0127,-0.0129,-0.0118,-0.0118,-0.0141,-0.0143,-0.0145,-0.0155,-0.0153,-0.0154,-0.0155,-0.0201,-0.0202,-0.0202,0,0,0,0,0,0,-0.0087,-0.0088,-0.0098,-0.0097,-0.0099,-0.0109,-0.0108,-0.0111,-0.0114,-0.0128,-0.013,-0.0118,-0.0141,-0.0144,-0.0149,-0.0156,-0.0155,-0.0156,-0.02,-0.0201,-0.0202,-0.0177,0,0,0,0,0,0,-0.0087,-0.0088,-0.0087,-0.0097,-0.0099,-0.01,-0.0109,-0.0111,-0.0114,-0.0115,-0.0129,-0.0132,-0.0141,-0.0148,-0.015,-0.0158,-0.0157,-0.0199,-0.0201,-0.0202,-0.0177,-0.0177,-0.0177,0,0,0,0,0,-0.0087,-0.0085,-0.0087,-0.0087,-0.0097,-0.0099,-0.0102,-0.0109,-0.0114,-0.0113,-0.0123,-0.0131,-0.0157,-0.0148,-0.0152,-0.016,-0.0199,-0.02,-0.0202,-0.0177,-0.0177,-0.0177,0,0,0,0,0,0,-0.0078,-0.0086,-0.0088,-0.0087,-0.0089,-0.0101,-0.0103,-0.0107,-0.0116,-0.0118,-0.013,-0.0133,-0.0144,-0.0156,-0.0146,-0.0179,-0.0183,-0.0185,-0.0164,-0.0164,-0.0164,-0.0154,-0.0158,0,0,0,0,0,-0.0076,-0.0079,-0.0084,-0.0082,-0.0084,-0.0093,-0.0096,-0.01,-0.0108,-0.0112,-0.0122,-0.0139,-0.0154,-0.016,-0.0175,-0.0186,-0.0187,-0.0198,-0.0198,-0.0198,-0.0194,-0.0192,-0.019,-0.0207,-0.0207,-0.0207,0,0,-0.0073,-0.0077,-0.0078,-0.0081,-0.0086,-0.0088,-0.0095,-0.0097,-0.01,-0.0113,-0.0122,-0.0136,-0.0157,-0.0171,-0.0178,-0.018,-0.0195,-0.0199,-0.0199,-0.0195,-0.0193,-0.0191,-0.0189,-0.0208,-0.0207,-0.0207,0,0,-0.0067,-0.007,-0.0071,-0.0072,-0.0076,-0.0084,-0.0082,-0.0092,-0.0096,-0.0102,-0.0118,-0.0131,-0.0152,-0.0169,-0.018,-0.0189,-0.0193,-0.0202,-0.0192,-0.019,-0.0188,-0.0186,-0.0184,-0.0182,-0.0202,-0.0202,-0.0202,0,-0.0062,-0.0061,-0.007,-0.0069,-0.0067,-0.008,-0.0075,-0.0085,-0.0095,-0.0094,-0.0101,-0.013,-0.0152,-0.0166,-0.0177,-0.0188,-0.0185,-0.0187,-0.0187,-0.0186,-0.0184,-0.0182,-0.0181,-0.0201,-0.0202,-0.0202,-0.0202,0,-0.0055,-0.0055,-0.0054,-0.0059,-0.0059,-0.0057,-0.0066,-0.0069,-0.0076,-0.0083,-0.0091,-0.0117,-0.0131,-0.015,-0.0168,-0.0177,-0.0177,-0.0184,-0.0181,-0.0181,-0.018,-0.0178,-0.02,-0.02,-0.0201,-0.0201,0,0,-0.0042,-0.0049,-0.0047,-0.0041,-0.005,-0.0045,-0.0051,-0.0051,-0.0043,-0.0063,-0.0048,-0.0095,-0.0104,-0.0119,-0.0144,-0.0153,-0.0151,-0.0166,-0.0167,-0.0152,-0.0142,-0.0166,-0.0166,-0.0152,-0.0152,-0.0152,-0.0145,0,-0.0031,-0.0023,-0.0031,-0.0021,-0.0015,-0.0023,-0.0021,-0.0023,-0.0027,-0.0018,-0.0045,-0.0045,-0.0094,-0.0094,-0.0114,-0.0134,-0.0147,-0.0153,-0.0155,-0.0156,-0.0166,-0.0166,-0.0139,-0.0133,-0.0143,-0.0143,-0.0143,0,-0.002,-0.0013,0.0001,0.001,0.0013,0.0017,0.0033,0.0033,0.0034,0.0037,0.0026,0.0011,-0.0011,-0.0045,-0.0084,-0.0082,-0.0116,-0.0136,-0.0136,-0.0164,-0.0176,-0.0137,-0.013,-0.0141,-0.0141,-0.0141,-0.0141,0,0.0004,0.001,0.0027,0.003,0.0036,0.0047,0.005,0.0053,0.0074,0.0078,0.0106,0.0066,0.0077,0.0022,-0.0034,-0.0054,-0.0061,-0.0091,-0.0145,-0.0147,-0.013,-0.0131,-0.0119,-0.0119,-0.0119,-0.0119,-0.0119,0,0.0022,0.0036,0.0043,0.0054,0.0085,0.0078,0.0113,0.0112,0.0137,0.0185,0.0139,0.0178,0.0097,0.0081,0.0003,-0.0058,-0.0033,-0.0141,-0.0147,-0.0122,-0.0123,-0.0136,-0.0138,-0.0118,-0.0118,-0.0119,-0.0119,0,0.005,0.0048,0.0073,0.0089,0.0097,0.0124,0.016,0.0191,0.0205,0.0274,0.0286,0.0278,0.0248,0.0162,0.0095,0.0008,-0.006,-0.009,-0.0059,-0.0062,-0.0161,-0.0162,-0.016,-0.0161,-0.0161,-0.0162,-0.0162,0,0.0064,0.0082,0.011,0.0132,0.0143,0.0179,0.021,0.0226,0.0272,0.0346,0.0393,0.0384,0.038,0.026,0.0122,-0.0013,-0.0043,-0.0087,-0.0141,-0.016,-0.0165,-0.0165,-0.0165,-0.0103,-0.0103,-0.0103,-0.0103,0,0.0105,0.0117,0.014,0.0186,0.0221,0.0267,0.0315,0.0365,0.0415,0.0456,0.0532,0.0533,0.0439,0.0313,0.0124,0.0028,-0.0072,-0.0094,-0.0094,-0.0107,-0.0109,-0.0113,-0.0115,-0.0103,-0.0103,-0.0103,-0.0103,-0.0103,0.0137,0.017,0.0203,0.0248,0.0291,0.0359,0.0403,0.045,0.0515,0.0582,0.0608,0.0592,0.0487,0.0224,0.0099,-0.0052,-0.0074,-0.0145,-0.0143,-0.0142,-0.0148,-0.0151,-0.0154,-0.0154,-0.0154,-0.0154,-0.0155,0,0.0177,0.0218,0.0264,0.0321,0.0377,0.0392,0.0478,0.0492,0.0552,0.0613,0.0632,0.051,0.0387,0.0259,0.0048,-0.0091,-0.0097,-0.0142,-0.0109,-0.0109,-0.011,-0.0112,-0.0109,-0.0109,-0.0109,-0.011,0,0,0.0196,0.0253,0.0279,0.0382,0.0432,0.05,0.055,0.0531,0.0555,0.0566,0.057,0.0555,0.0426,0.0275,0.0118,0.0013,-0.0026,-0.002,-0.0044,0.0014,0.0015,-0.01,-0.0103,0,0,0,0,0]}],[{"header":{"parameterUnit":"m.s-1","parameterCategory":2,"la1":30.2991,"la2":30.254,"lo1":-89.0895,"lo2":-89.0444,"dy":0.0017,"dx":0.0017,"nx":28,"ny":28,"refTime":"2024-12-08T03:00:00:Z","depth":"4","parameterNumber":2,"parameterNumberName":"U-component_of_CURRENTS"},"data":[0,0,0,0,0,0,0,0,0,0,0,0,0,0,0,0,0,0,0,0,0,0,0,0,0,0,0,0,0,0,0,0,0,0,0,0,0,0,0,0,0,0,0,0,0,0,0,0,0,0,0,0,0,0,0,0,0,0,0.0747,0.0748,0,0.0762,0.0762,0.0762,0.0791,0.0792,0.0793,0.0794,0.0832,0.0832,0.0833,0,0,0,0,0,0,0,0,0,0,0,0,0,0.0699,0.0699,0.0747,0.0748,0.0748,0.0762,0.0762,0.0762,0.0791,0.0792,0.0793,0.0794,0.0832,0.0832,0.0833,0,0,0,0,0,0,0,0,0,0,0,0,0,0.0714,0.07,0.0747,0.0766,0.0769,0.0762,0.0762,0.0762,0.0791,0.0792,0.0793,0.0794,0.0832,0.0832,0.0833,0.0809,0,0,0.0834,0.0834,0,0,0,0,0,0,0,0,0.0713,0.0716,0.0763,0.0765,0.0768,0.0779,0.0759,0.078,0.079,0.0779,0.0794,0.0795,0.0818,0.0819,0.0814,0.0811,0.0813,0.0834,0.0834,0.0834,0.0834,0,0,0,0,0,0,0,0.0712,0.0715,0.075,0.0764,0.0766,0.0759,0.0763,0.0763,0.0789,0.078,0.0783,0.0789,0.0819,0.0814,0.0816,0.0813,0.0834,0.0834,0.0834,0.0834,0.0867,0.0867,0,0,0,0,0,0,0.0718,0.0714,0.075,0.0751,0.0747,0.0759,0.0763,0.0771,0.0789,0.0793,0.0788,0.0791,0.0813,0.0815,0.0817,0.0853,0.0834,0.0835,0.0835,0.0866,0.0867,0.0868,0,0,0,0,0,0,0.0717,0.0721,0.0749,0.0735,0.0739,0.076,0.0768,0.0771,0.079,0.0795,0.08,0.0807,0.0814,0.0817,0.0842,0.0852,0.0835,0.0835,0.0865,0.0866,0.0867,0.0884,0,0,0,0,0,0,0.0715,0.072,0.0733,0.0736,0.074,0.0764,0.0767,0.0771,0.0792,0.0796,0.0812,0.0816,0.0815,0.0841,0.0842,0.0852,0.0835,0.0865,0.0866,0.0867,0.0882,0.0885,0.0888,0,0,0,0,0,0.0713,0.0725,0.0734,0.0739,0.0756,0.0765,0.0767,0.0783,0.0792,0.0804,0.0818,0.0816,0.0849,0.0842,0.0843,0.0854,0.0864,0.0865,0.0867,0.0881,0.0885,0.0888,0,0,0,0,0,0,0.0716,0.0729,0.0739,0.0757,0.077,0.0772,0.0783,0.0793,0.081,0.082,0.0823,0.0827,0.0851,0.0851,0.0843,0.0867,0.0857,0.0858,0.0867,0.0871,0.0873,0.088,0.0836,0,0,0,0,0,0.0721,0.0733,0.0746,0.0763,0.0769,0.0778,0.0787,0.08,0.0812,0.0821,0.0832,0.0844,0.0851,0.0863,0.0868,0.0881,0.0895,0.089,0.0892,0.0894,0.0901,0.0964,0.0973,0.0872,0.0872,0.0872,0,0,0.0725,0.0737,0.0744,0.0765,0.0772,0.0774,0.0786,0.0806,0.0814,0.0822,0.0841,0.0853,0.0857,0.0872,0.0883,0.0879,0.0922,0.0896,0.0898,0.0904,0.0967,0.0977,0.0986,0.0873,0.0873,0.0873,0,0,0.073,0.0752,0.0758,0.0767,0.0788,0.079,0.0801,0.0815,0.0831,0.0849,0.0856,0.0881,0.089,0.0898,0.09,0.092,0.0932,0.0924,0.0945,0.1006,0.1015,0.1024,0.1017,0.1024,0.0928,0.0928,0.0928,0,0.0736,0.0744,0.0762,0.0767,0.0776,0.0797,0.0802,0.0812,0.0837,0.0842,0.0863,0.0883,0.0899,0.0908,0.0928,0.0926,0.0949,0.0931,0.1011,0.102,0.1028,0.1019,0.1028,0.0929,0.0929,0.0929,0.0929,0,0.0736,0.0746,0.075,0.076,0.0775,0.0784,0.0801,0.0821,0.0843,0.0844,0.0872,0.0901,0.092,0.0926,0.094,0.0995,0.0985,0.1006,0.1004,0.104,0.1027,0.1035,0.093,0.093,0.093,0.0929,0,0,0.0734,0.0746,0.0749,0.0744,0.0773,0.0775,0.08,0.081,0.0826,0.0849,0.0884,0.0898,0.0926,0.0934,0.0957,0.1015,0.1091,0.1051,0.1053,0.1043,0.1193,0.1095,0.1094,0.1145,0.1148,0.115,0.1147,0,0.0726,0.0721,0.0743,0.0737,0.0728,0.0762,0.0784,0.0801,0.0832,0.0874,0.0897,0.0939,0.0923,0.0973,0.1018,0.1097,0.1121,0.1087,0.116,0.1161,0.1072,0.1105,0.1158,0.1153,0.1155,0.1156,0.1157,0,0.0714,0.0709,0.071,0.0712,0.0717,0.0728,0.0767,0.0801,0.0854,0.0891,0.0925,0.096,0.1031,0.105,0.1133,0.1123,0.1157,0.1195,0.1197,0.1111,0.1081,0.112,0.1172,0.1171,0.117,0.1169,0.1168,0,0.0683,0.068,0.0679,0.0681,0.07,0.0718,0.0746,0.0795,0.0839,0.0932,0.0978,0.1027,0.11,0.1159,0.1208,0.1208,0.1308,0.1311,0.1217,0.1208,0.1289,0.1281,0.1364,0.1364,0.1364,0.1364,0.1364,0,0.0656,0.0647,0.0659,0.0656,0.0665,0.07,0.0743,0.0788,0.0881,0.0924,0.0998,0.1037,0.1151,0.1202,0.1237,0.1237,0.1314,0.122,0.1217,0.1287,0.128,0.1292,0.1284,0.1364,0.1364,0.1364,0.1364,0,0.0621,0.0636,0.0627,0.0643,0.0654,0.0672,0.0746,0.0774,0.0873,0.0957,0.1002,0.1086,0.1146,0.1195,0.13,0.1256,0.1288,0.1259,0.129,0.1288,0.113,0.1123,0.1161,0.1158,0.1155,0.1153,0.1151,0,0.06,0.0592,0.0617,0.0632,0.0644,0.0675,0.0703,0.078,0.0826,0.0946,0.0984,0.1069,0.1106,0.1141,0.1207,0.123,0.1216,0.1202,0.1197,0.1125,0.1118,0.1114,0.1111,0.1147,0.1146,0.1145,0.1145,0,0.0546,0.0573,0.0566,0.061,0.0631,0.0652,0.0698,0.0719,0.0819,0.09,0.0951,0.0983,0.1032,0.1082,0.1107,0.1119,0.1214,0.1174,0.118,0.1175,0.1108,0.1103,0.1102,0.1136,0.1137,0.1138,0.1138,0,0.0515,0.0503,0.0527,0.0554,0.06,0.0625,0.0642,0.0679,0.0732,0.0861,0.0858,0.0938,0.1013,0.1019,0.104,0.1056,0.1043,0.1015,0.1029,0.1039,0.1004,0.0902,0.0867,0,0,0,0,0,0.0475,0.0457,0.0473,0.0492,0.0545,0.0583,0.0642,0.0666,0.0735,0.0754,0.0816,0.0853,0.0887,0.0918,0.0913,0.0976,0.1041,0.0962,0.1015,0.1085,0.1095,0.1067,0,0,0,0,0,0,0.0449,0.0451,0.044,0.0446,0.0467,0.0509,0.0551,0.0593,0.0617,0.0699,0.0728,0.0794,0.0845,0.0887,0.0894,0.0905,0.0919,0.1013,0.1011,0.1079,0.1088,0.1097,0.1071,0,0,0,0,0]},{"header":{"parameterUnit":"m.s-1","parameterCategory":2,"la1":30.2991,"la2":30.254,"lo1":-89.0895,"lo2":-89.0444,"dy":0.0017,"dx":0.0017,"nx":28,"ny":28,"refTime":"2024-12-08T03:00:00:Z","depth":"4","parameterNumber":3,"parameterNumberName":"V-component_of_CURRENTS"},"data":[0,0,0,0,0,0,0,0,0,0,0,0,0,0,0,0,0,0,0,0,0,0,0,0,0,0,0,0,0,0,0,0,0,0,0,0,0,0,0,0,0,0,0,0,0,0,0,0,0,0,0,0,0,0,0,0,0,0,0.0036,0.0035,0,0.0033,0.0033,0.0033,0.0034,0.0034,0.0034,0.0034,0.0026,0.0026,0.0025,0,0,0,0,0,0,0,0,0,0,0,0,0,0.0053,0.0053,0.0036,0.0035,0.0035,0.0033,0.0033,0.0033,0.0034,0.0034,0.0034,0.0034,0.0026,0.0026,0.0025,0,0,0,0,0,0,0,0,0,0,0,0,0,0.0048,0.0053,0.0036,0.0035,0.0035,0.0033,0.0033,0.0033,0.0034,0.0034,0.0034,0.0034,0.0026,0.0026,0.0025,0.0023,0,0,0.0024,0.0024,0,0,0,0,0,0,0,0,0.0048,0.0047,0.0035,0.0035,0.0035,0.0033,0.0036,0.0029,0.0034,0.0035,0.0034,0.0034,0.0028,0.0027,0.0027,0.0023,0.0022,0.0024,0.0024,0.0024,0.0024,0,0,0,0,0,0,0,0.0049,0.0047,0.0035,0.0035,0.0035,0.0039,0.0038,0.0035,0.0031,0.0035,0.0035,0.0034,0.0028,0.0028,0.0027,0.0022,0.0024,0.0024,0.0024,0.0024,0.0037,0.0037,0,0,0,0,0,0,0.0047,0.0048,0.0035,0.0035,0.0041,0.0039,0.0038,0.0034,0.0032,0.0031,0.0034,0.0034,0.0028,0.0028,0.0027,0.0049,0.0024,0.0024,0.0023,0.0036,0.0037,0.0038,0,0,0,0,0,0,0.0047,0.0046,0.0035,0.0041,0.004,0.0038,0.0034,0.0034,0.0034,0.0031,0.003,0.0033,0.0028,0.0027,0.0028,0.0048,0.0024,0.0023,0.0036,0.0037,0.0037,0.0078,0,0,0,0,0,0,0.0048,0.0046,0.0043,0.0041,0.004,0.0033,0.0034,0.0034,0.0033,0.0033,0.003,0.0029,0.0028,0.0029,0.0028,0.0047,0.0023,0.0035,0.0036,0.0037,0.0076,0.008,0.0084,0,0,0,0,0,0.0049,0.0044,0.0043,0.0042,0.0036,0.0033,0.0033,0.0032,0.0033,0.0032,0.0034,0.0029,0.0035,0.0029,0.0028,0.0047,0.0035,0.0036,0.0037,0.0074,0.0079,0.0084,0,0,0,0,0,0,0.0046,0.0043,0.0042,0.0036,0.0035,0.0033,0.0032,0.0032,0.0033,0.0033,0.0032,0.0031,0.0041,0.0035,0.0028,0.0054,0.0036,0.0037,0.0065,0.0069,0.0073,0.0098,0.0023,0,0,0,0,0,0.0045,0.0042,0.004,0.0034,0.0034,0.0033,0.0032,0.0032,0.0032,0.0032,0.0033,0.0036,0.0045,0.0049,0.0049,0.006,0.0042,0.0073,0.0076,0.008,0.0099,0.0084,0.0088,0.0042,0.0042,0.0042,0,0,0.0043,0.004,0.0038,0.0034,0.0034,0.0044,0.0033,0.0031,0.0049,0.0031,0.0051,0.0045,0.0049,0.0066,0.007,0.0064,0.0079,0.0081,0.0084,0.0102,0.0086,0.009,0.0094,0.0043,0.0042,0.0042,0,0,0.0042,0.0035,0.0037,0.004,0.0039,0.0044,0.0044,0.0044,0.0053,0.0063,0.0065,0.0074,0.0075,0.0095,0.0103,0.0128,0.0097,0.012,0.0165,0.015,0.0154,0.0157,0.0119,0.0119,0.0126,0.0126,0.0126,0,0.0041,0.0047,0.0036,0.0045,0.0058,0.0048,0.0066,0.0073,0.0075,0.0095,0.0073,0.0103,0.0098,0.0145,0.0154,0.014,0.0111,0.0147,0.0155,0.0158,0.0161,0.0122,0.0121,0.0128,0.0128,0.0128,0.0128,0,0.0048,0.0058,0.006,0.0075,0.0084,0.0094,0.0108,0.0121,0.0126,0.0137,0.0169,0.0162,0.0185,0.0183,0.0177,0.0206,0.0171,0.0157,0.0144,0.0168,0.0125,0.0123,0.0131,0.0131,0.013,0.0129,0,0,0.004,0.0063,0.0066,0.0093,0.0106,0.0121,0.0154,0.019,0.0223,0.0221,0.026,0.028,0.027,0.028,0.0272,0.0265,0.0246,0.0221,0.0219,0.0185,0.0188,0.0152,0.0146,0.0224,0.0225,0.0225,0.0142,0,0.0056,0.0089,0.0096,0.0144,0.017,0.0186,0.0223,0.0253,0.0268,0.0296,0.0306,0.0324,0.031,0.031,0.0308,0.0256,0.0247,0.0269,0.0169,0.0167,0.0134,0.0146,0.0227,0.014,0.014,0.014,0.0139,0,0.0068,0.0096,0.014,0.0204,0.0218,0.0245,0.0314,0.0343,0.0379,0.0382,0.0405,0.0393,0.0401,0.0368,0.032,0.0326,0.0272,0.0228,0.0224,0.0183,0.013,0.0116,0.0136,0.0136,0.0136,0.0137,0.0137,0,0.0082,0.0134,0.0179,0.0197,0.0255,0.0293,0.033,0.0374,0.0402,0.043,0.0429,0.0443,0.0419,0.0378,0.0291,0.0297,0.0207,0.0202,0.0127,0.0121,0.0159,0.0157,0.0177,0.0177,0.0177,0.0177,0.0178,0,0.0103,0.0143,0.0194,0.0219,0.0289,0.0321,0.0392,0.0418,0.0449,0.0468,0.0471,0.0462,0.0415,0.0356,0.0296,0.0195,0.0208,0.0142,0.0107,0.0174,0.0175,0.0156,0.0155,0.0174,0.0175,0.0176,0.0176,0,0.0109,0.0137,0.0195,0.0266,0.0293,0.0343,0.0416,0.0453,0.0474,0.049,0.0489,0.0456,0.0374,0.0317,0.0219,0.018,0.01,0.0062,0.012,0.0087,0.0024,0.0026,-0.0015,-0.0017,-0.0019,-0.002,-0.0021,0,0.0114,0.0143,0.0219,0.0253,0.0288,0.0365,0.0408,0.0456,0.0478,0.0476,0.0465,0.0401,0.037,0.021,0.015,0.004,0.003,-0.0009,0.0045,0.0039,0.0009,0.0013,0.0017,-0.0023,-0.0024,-0.0024,-0.0024,0,0.0125,0.0146,0.0192,0.0256,0.0308,0.0372,0.043,0.0441,0.0474,0.0493,0.0434,0.0372,0.0274,0.0183,0.0089,0.0017,0.0024,-0.0024,-0.0021,0.003,0.0029,0.0002,0.0007,-0.0029,-0.0029,-0.0028,-0.0028,0,0.0123,0.0151,0.0195,0.0256,0.0312,0.0344,0.0395,0.0414,0.0436,0.0432,0.0402,0.0323,0.0285,0.0166,0.0079,0.0006,0.0004,-0.0,0.0002,0.0007,0.0048,0.0051,-0.0023,0,0,0,0,0,0.0113,0.0134,0.019,0.0242,0.0294,0.0317,0.0384,0.0424,0.0451,0.0406,0.0409,0.0322,0.0198,0.0146,0.0065,0.0053,-0.0012,-0.0043,-0.0016,-0.0058,-0.0052,-0.0009,0,0,0,0,0,0,0.0099,0.0141,0.0175,0.0211,0.0232,0.0279,0.0312,0.034,0.033,0.0348,0.0284,0.0286,0.0165,0.0223,0.0048,0.0029,0.0035,-0.0088,-0.009,-0.0061,-0.0056,-0.0051,-0.0005,0,0,0,0,0]}]]